Location: Lac Lasalle
(46.0398°N, 74.1576°W)
Time: 01:29:11
(UTC-05:00)

AO-73 - Pass Details

Date: 10 December 2019
Orbit: 582 x 664 km, 97.6° (Epoch: 27 January)

Event Time Altitude Azimuth Distance (km) Brightness Sun altitude
Rises 18:45:08 0° 212° (SSW) 2,975 ? -25.7°
Reaches altitude 10° 18:48:17 10° 236° (SW) 2,059 ? -26.3°
Maximum altitude 18:50:49 15° 270° (W) 1,751 ? -26.7°
Drops below altitude 10° 18:53:21 10° 305° (NW) 2,045 ? -27.2°
Sets 18:56:29 0° 329° (NNW) 2,943 ? -27.7°
